Regional Weather Roundup
Issued by NWS

Home | Current Version | Previous Version | Graphics & Text | Print | Product List | Glossary On
Versions: 1 2 3 4 5 6 7 8 9 10 11 12 13 14 15 16 17 18 19 20 21 22 23 24 25 26 27 28 29 30 31 32 33 34 35 36 37 38 39 40 41 42 43 44 45 46 47 48 49 50
000
ASUS45 KPSR 232310
RWRAZ

ARIZONA HOURLY REGIONAL WEATHER ROUNDUP
NATIONAL WEATHER SERVICE PHOENIX AZ
400 PM MST SAT MAY 23 2015

NOTE: FAIR INDICATES FEW OR NO CLOUDS BELOW 12,000 FEET WITH NO
SIGNIFICANT WEATHER AND/OR OBSTRUCTIONS TO VISIBILITY.

AZZ001>003-036-240000-
NORTHWEST ARIZONA

CITY           SKY/WX    TMP DP  RH WIND       PRES   REMARKS
BULLHEAD CITY  SUNNY     84  39  20 S17       29.82F
KINGMAN        PTSUNNY   75  36  24 SW18G25   29.95F
$$

AZZ004>008-015-016-018-240000-
NORTH CENTRAL ARIZONA

CITY           SKY/WX    TMP DP  RH WIND       PRES   REMARKS
GRAND CANYON   CLOUDY    47  43  86 CALM      30.04F
WILLIAMS       CLOUDY    55  34  44 SW13      30.13F
PRESCOTT       PTSUNNY   64  31  28 S12G21    30.02F
FLAGSTAFF      PTSUNNY   53  33  46 SW13G25   30.07F
PAYSON         CLOUDY    61  34  36 VRB6      30.04F
PAGE           CLOUDY    59  43  55 CALM      29.95F
$$

AZZ009>014-017-240000-
NORTHEAST ARIZONA

CITY           SKY/WX    TMP DP  RH WIND       PRES   REMARKS
WINSLOW        CLOUDY    69  31  24 SW21      29.97F
SAINT JOHNS    SUNNY     67  25  20 W17G31    29.97F
WINDOW ROCK    CLOUDY    57  28  33 W17G23    30.02F
SHOW LOW       MOSUNNY   59  25  27 SW10G18   30.05F
$$

AZZ023-240000-
GREATER PHOENIX AREA

CITY           SKY/WX    TMP DP  RH WIND       PRES   REMARKS
PHOENIX        MOSUNNY   81  35  19 VRB5      29.89F
BUCKEYE        MOSUNNY   81  37  21 S8        29.91F
GLENDALE       MOSUNNY   81  36  19 SW9       29.91F
LUKE AFB       MOSUNNY   79  36  21 SW8       29.89F
SCOTTSDALE     SUNNY     79  34  19 W8        29.92F
MESA-FALCON    MOSUNNY   79  36  21 S12       29.91F
MESA-GATEWAY   MOSUNNY   79  34  19 SW9       29.93F
CHANDLER       MOSUNNY   79  36  21 S10       29.91F
$$

AZZ027-028-240000-
SOUTHWEST MARICOPA COUNTY AND PINAL COUNTY

CITY           SKY/WX    TMP DP  RH WIND       PRES   REMARKS
CASA GRANDE    SUNNY     79  36  21 CALM      29.90F
GILA BEND      FAIR      81  35  18 NW6       29.89F
$$

AZZ503-504-507>509-240000-
SOUTHEAST ARIZONA

CITY           SKY/WX    TMP DP  RH WIND       PRES   REMARKS
TUCSON         SUNNY     78  26  14 W6        29.96F
DAVIS-MONTHAN  SUNNY     76  28  16 VRB5      29.94F
RYAN FIELD       N/A     79  32  18 W10G18    29.96F
NOGALES        SUNNY     75  24  15 W14G23    29.99F
SIERRA VISTA   SUNNY     72  17  12 W15       30.00F
DOUGLAS        SUNNY     76  16  10 W13G25    29.95F
SAFFORD        SUNNY     79  26  14 NW8G17    29.89F
$$

AZZ020-021-025-026-031-240000-
SOUTHWEST ARIZONA

CITY           SKY/WX    TMP DP  RH WIND       PRES   REMARKS
YUMA           SUNNY     84  44  24 W8        29.89F
$$

CAZ031-033-041-043-047-048-061-240000-
SOUTHERN CALIFORNIA

CITY           SKY/WX    TMP DP  RH WIND       PRES   REMARKS
DOWNTOWN L.A.  SUNNY     70  52  52 CALM      30.02F
L.A. AIRPORT   MOSUNNY   64  52  64 W14       30.05F
SAN DIEGO      PTSUNNY   67  49  52 SW8       30.07F
BURBANK        MOSUNNY   70  50  49 S12       30.01F
ONTARIO        CLOUDY    65  50  58 VRB5      30.03F
RIVERSIDE      CLOUDY    66  51  58 W3        30.04F
PALM SPRINGS   SUNNY     81  46  29 NW22G31   29.90F
EL CENTRO NAS  SUNNY     82  44  26 S10       29.90F
IMPERIAL       SUNNY     82  44  26 SW8       29.88F
BLYTHE         SUNNY     85  41  21 S15G23    29.86F
NEEDLES        PTSUNNY   85  36  17 S10G20    29.84F
$$

NVZ020-UTZ003-240000-
SOUTHERN NEVADA-UTAH

CITY           SKY/WX    TMP DP  RH WIND       PRES   REMARKS
LAS VEGAS      PTSUNNY   81  39  22 SW13G20   29.80F
SALT LAKE CITY PTSUNNY   59  43  55 N6        29.92F
$$

NMZ009-TXZ055-240000-
NEW MEXICO-WEST TEXAS

CITY           SKY/WX    TMP DP  RH WIND       PRES   REMARKS
ALBUQUERQUE    MOSUNNY   70  19  14 SW13      29.90F
EL PASO        SUNNY     82  15   8 W18G32    29.84F
$$


........................KEY........................
SKY/WX - SKY CONDITION/WEATHER
TMP    - TEMPERATURE IN FAHRENHEIT
DP     - DEW POINT IN FAHRENHEIT
RH     - RELATIVE HUMIDITY IN PERCENT
WIND   - DIRECTION AND SPEED IN MILES PER HOUR (MPH)
VRB    - VARIABLE WIND DIRECTION
PRES   - MEAN SEA LEVEL PRESSURE IN INCHES OF MERCURY
         F - FALLING PRESSURE   R - RISING PRESSURE
         S - STEADY PRESSURE
VSB    - VISIBILITY IN MILES
HX     - HEAT INDEX IN FAHRENHEIT
WCI    - WIND CHILL INDEX IN FAHRENHEIT
TC     - TEMPERATURE IN CELSIUS WHICH IS ALSO KNOWN AS
         TEMPERATURE IN CENTIGRADE
AFB    - AIR FORCE BASE
         LUKE AFB IS LUKE AIR FORCE BASE
         DAVIS-MONTHAN IS DAVIS-MONTHAN AIR FORCE BASE
NAS    - NAVAL AIR STATION
         EL CENTRO NAS IS EL CENTRO NAVAL AIR STATION
N/A    - NOT AVAILABLE




USA.gov is the U.S. government's official web portal to all federal, state and local government web resources and services.